ASIASTAR

Last updated on Sat Apr 13 2024 01:02:36 GMT+0100 (British Summer Time)

1 26107U 00016A 24103.63759522 -.00000341 00000+0 00000+0 0 9999 2 26107 7.2533 66.1663 0004359 316.1873 153.5067 1.00273181 87944
UTC large
Height (km)
Speed (km/s)
/
Latitude / Longitude
Inclination (degrees)
Orbital Period (minutes)
Azimuth
Elevation
Range (km)
Doppler Factor

Next 0 passes for location: London (51.5072 / 0.1276)

Sorry there are no passes over London.